Accueil
METAR-TAF:

METAR-TAF

Aéroports :

Locarno, Suisse

latitude: 46-09-55N, longitude: 8-52-40E, altitude: 198 m

Observation

Le bulletin a été fait il y a 35 minutes, à 01:50 UTC
Vent 4 kt de nord-est
Température 20°C
Humidité 83%
Pression 1020 hPa
Visibilité 10 km ou plus
Quelques nuages à une hauteur de 11000 ft

METAR: LSZL 190150Z AUTO 05004KT 9999NDV FEW110 20/17 Q1020 RMK

Heure: 04:25 (02:25 UTC)

Prévision

Le bulletin a été fait il y a 6 heures et 14 minutes, à 20:11 UTC
Prévision valable du 17 à 20 UTC au 18 à 03 UTC
Vent 10 kt de est/sud-est
Visibilité 10 km ou plus
Quelques nuages à une hauteur de 10000 ft
Nuages épars à une hauteur de 12000 ft
Probabilité 30% :
Temporairement
du 17 à 20 UTC au 17 à 22 UTC
Visibilité: 4500 m
Quelques nuages à une hauteur de 5000 ft, Cumulonimbus.
orage, pluie

TAF: LSZL 172011Z 1720/1803 11010KT 9999 FEW100 SCT120 PROB30 TEMPO 1720/1722 4500 TSRA FEW050CB

Observations et prévisions météorologiques de plus de 4000 aéroports (messages METAR et TAF).

Les stations disponibles sont représentées par des disques jaunes et rouges sur la carte.

Passer la souris dessus pour voir le nom de la station.

Cliquer dessus pour voir les observations et prévisions météorologiques.

Pour changer de carte: cliquez sur les boutons verts avec une croix noire pour zoomer, sur le bouton vert avec un tiret pour effectuer un zoom arrière, ou sur les flèches vertes pour les cartes adjacentes.


METAR-TAF: